Regional Weather Roundup
Issued by NWS

Home | Current Version | Previous Version | Text Only | Print | Product List | Glossary Off
Versions: 1 2 3 4 5 6 7 8 9 10 11 12 13 14 15 16 17 18 19 20 21 22 23 24 25 26 27 28 29 30 31 32 33 34 35 36 37 38 39 40 41 42 43 44 45 46 47 48 49 50

000
ASUS43 KOAX 310210
RWRNE

WEATHER ROUNDUP FOR NEBRASKA
NATIONAL WEATHER SERVICE OMAHA NE
800 PM CST FRI JAN 30 2015

NOTES: SATELLITE DATA IS BEING USED TO AUGMENT CLOUD COVER ABOVE
       12000 FEET.
       "FAIR" INDICATES FEW OR NO CLOUDS BELOW 12,000 FEET WITH NO
       SIGNIFICANT WEATHER AND/OR OBSTRUCTIONS TO VISIBILITY.

  * THESE STATIONS DO NOT REPORT WEATHER SUCH AS RAIN...SNOW OR FOG.

NEZ001>004-019>022-054>056-310300-
NEBRASKA PANHANDLE

CITY           SKY/WX    TMP DP  RH WIND       PRES   REMARKS
SCOTTSBLUFF    CLOUDY    35  29  78 N3        30.11F
ALLIANCE       CLOUDY    32  27  81 N5        30.10F WCI  27
CHADRON        CLOUDY    32  24  72 W3        30.13F
KIMBALL        CLOUDY    36  27  70 N9        30.06F WCI  29
SIDNEY         CLOUDY    36  26  67 N6        30.08F WCI  31
$$

NEZ057>060-069>072-079>082-310300-
SOUTHWEST NEBRASKA

CITY           SKY/WX    TMP DP  RH WIND       PRES   REMARKS
NORTH PLATTE   CLOUDY    40  31  70 S10       30.16R WCI  33
IMPERIAL       CLOUDY    41  31  67 S15       30.13S
LEXINGTON      CLOUDY    43  31  63 S13       30.20R
MCCOOK         CLOUDY    41  33  73 S14       30.20R
OGALLALA       CLOUDY    40  31  69 CALM      30.11S
$$

NEZ005>010-023>029-035>040-094-310300-
NORTH CENTRAL NEBRASKA

CITY           SKY/WX    TMP DP  RH WIND       PRES   REMARKS
VALENTINE      CLOUDY    38  27  64 CALM      30.14R
AINSWORTH      CLOUDY    36  27  70 S9        30.14S WCI  29
BROKEN BOW     CLOUDY    39  27  62 S6        30.17S WCI  35
O`NEILL        MOCLDY    38  28  66 S8        30.17S WCI  32
ORD            CLOUDY    39  25  57 S9        30.18F WCI  33
THEDFORD       CLOUDY    40  29  64 S8        30.15S WCI  35
$$

NEZ041-046>049-061>064-073>077-083>087-310300-
SOUTH CENTRAL NEBRASKA

CITY           SKY/WX    TMP DP  RH WIND       PRES   REMARKS
GRAND ISLAND   CLOUDY    41  26  55 S12       30.24S
AURORA         CLOUDY    39  26  58 S9        30.24S WCI  33
HASTINGS       CLOUDY    40  25  55 S9        30.23F WCI  34
HEBRON         CLOUDY    39  25  56 S7        30.29S WCI  34
HOLDREGE       CLOUDY    39  32  76 S13       30.22S WCI  31
KEARNEY *      CLOUDY    41  25  52 S15       30.22S
YORK           CLOUDY    37  27  65 S9        30.26S WCI  31
$$

NEZ011>018-030>034-042>045-310300-
NORTHEAST NEBRASKA

CITY           SKY/WX    TMP DP  RH WIND       PRES   REMARKS
NORFOLK        MOCLDY    38  27  64 S6        30.21S WCI  33
ALBION         CLOUDY    37  25  63 SE3       30.22S
BLAIR          CLOUDY    36  25  66 S12       30.26F WCI  27
COLUMBUS *     CLOUDY    37  25  60 S10       30.26S WCI  30
FREMONT        MOCLDY    37  27  65 S10       30.27F WCI  30
TEKAMAH        CLOUDY    32  25  75 S12       30.27F WCI  23
WAYNE          MOCLDY    34  28  77 S12       30.21F WCI  25
$$

NEZ050>053-065>068-078-088>093-310300-
SOUTHEAST NEBRASKA

CITY           SKY/WX    TMP DP  RH WIND       PRES   REMARKS
LINCOLN        MOCLDY    37  26  64 S12       30.29F WCI  29
OMAHA EPPLEY   CLOUDY    34  25  69 S14       30.29F WCI  25
BEATRICE       CLOUDY    36  26  67 S8        30.30S WCI  29
FALLS CITY     MOCLDY    30  21  69 SE7       30.34F WCI  23
NEBRASKA CITY  MOCLDY    31  21  67 S7        30.31F WCI  24
PLATTSMOUTH    MOCLDY    32  23  70 S9        30.29F WCI  24
$$

NEZ044-045-051>053-067-310300-
OMAHA AREA

CITY           SKY/WX    TMP DP  RH WIND       PRES   REMARKS
OMAHA EPPLEY   CLOUDY    34  25  69 S14       30.29F WCI  25
BLAIR          CLOUDY    36  25  66 S12       30.26F WCI  27
FREMONT        MOCLDY    37  27  65 S10       30.27F WCI  30
MILLARD        CLOUDY    33  25  71 SE6       30.29F WCI  28
OFFUTT AFB     CLOUDY    31  24  75 SE7       30.29F WCI  25
PLATTSMOUTH    MOCLDY    32  23  70 S9        30.29F WCI  24
WAHOO          FAIR      32  24  72 S10       30.27F WCI  23
$$



USA.gov is the U.S. government's official web portal to all federal, state and local government web resources and services.